STARLINK-5631, 55346

Orbit data source: Space-Track

STARLINK-5631, 55346 is a payload satellite owned by SpaceX/Seattle (US) in LEO that was launched on Thu, 26 Jan 2023 UTC via an FALCON 9 launch vehicle from the Air Force Eastern Test Range (AFETR). Payload-class satellites include a variety of spacecraft equipped with specific instruments for various scientific and technological missions. These include communications satellites like Starlink; space stations such as the ISS; scientific satellites like the Hubble; Earth observation satellites from companies like Planet Labs, Umbra, and HawkEye 360; GPS; miniature CubeSats for education and research; and military/defense satellites.

Loading next visibility...
Identifier
55346, 2023-013R
Orbit
LEO
Country
Flag of USUS
Related business
Manufacturer
SpaceX/Seattle
Mission
Operational Commercial Communications
Bus & Motor
STARLINK, Unknown motor
Mass
305 kg wet, ~290 kg dry
Launch date (UTC)
2023-01-26 (3 years ago)
Launch vehicle
FALCON 9
Launch site
Air Force Eastern Test Range (AFETR)
Object type
Payload
Rocket body
Debris
Shape & HBR
Box + 1 Pan, 10.1 m
Radar Cross Section
13.562 m², Large (>1 m²)

Expand to show TLE details & history
Last TLE update: 11 hours ago

TLE from 11 hours ago
0 STARLINK-5631
1 55346U 23013R   25349.82640662  .00001073  00000-0  94475-4 0  9993
2 55346  43.0047  36.0689 0001154 270.1259  89.9451 15.02532153159099
Epoch: 2025-12-15T19:50Z
TLE epoch observation values (Epoch: 2025-12-15T19:50:01.531Z)
Latitude
-0.00005°
Longitude
13.84307°
Altitude
558.869 km
Speed
7.584 km/s
True Right ascension
02h 24m 16s
True Declination
0° 00' 00"
Sunlit
Object was in full shadow at epoch
Visualization orbit readout
Latitude
Unknown
Longitude
Unknown
Altitude
Unknown
Speed
Unknown
Apparent Right ascension
Unknown
Apparent Declination
Unknown
Sunlit
N/A
Visualization observer readout
Local Sidereal Time
05:30:26
Azimuth
Unknown
Elevation
Unknown
Doppler factor
Unknown
Orbital elements
Apogee altitude
561.815 km
Perigee altitude
560.214 km
Semi-major axis
6,939.152 km
Eccentricity
0.00012
Inclination
43.0047°
RAAN
36.0689°
Arg. of periapsis
270.1259°
True anomaly
89.95832°
Mean anomaly
89.9451°
Eccentric anomaly
89.95171°
Mean motion
3.75477 °/min
Orbital period
95.88 mins
BSTAR
0.000094475
Loading maneuver chart data...
Computing Atmospheric mass density...
Loading historical data...
Loading historical data...
Loading historical data...
Loading historical data...
Loading historical data...
Loading historical data...
Loading historical data...

Documentation

Showing up to 5 results
|